Temp
42 42 43 42 43 44 44 45 45 46 46 46 46 47 49 51 52 52 51 49 49 49 48 49 49 50 50 50 50 50 48 48 40 40 43 43 42 42 43 43 44 44 44
42 42 42 43 43 43 44 45 46 46 46 46 47 47 49 52 52 52 51 50 50 49 48 49 49 51 50 50 49 48 47 48 43 39 41 41 41 41 41 41 42 43 43
42 42 42 42 42 43 44 45 45 45 45 46 47 47 50 51 52 52 52 51 50 50 50 50 50 51 49 49 48 47 46 46 45 42 39 40 39 39 38 38 38 38 40
41 41 41 41 43 43 44 44 45 45 45 46 46 47 50 50 52 51 50 50 50 50 50 50 51 51 49 49 47 45 45 44 44 42 39 38 38 37 37 34 32 34 33
41 40 41 41 43 43 43 44 44 45 46 49 46 46 50 50 51 51 51 51 50 49 50 50 51 46 44 47 47 45 45 44 42 41 39 37 35 34 33 33 32 31 31
41 40 41 41 42 42 43 43 44 46 47 47 45 45 48 48 45 45 49 50 50 49 48 47 45 40 43 43 43 44 46 44 42 41 39 37 36 35 34 33 31 30 27
40 39 40 40 41 41 42 42 43 45 46 46 46 47 47 47 43 44 44 50 49 48 47 45 42 40 40 43 41 42 41 43 45 45 41 40 37 36 35 33 34 33 30
39 39 40 40 39 39 40 41 43 45 44 45 45 46 46 45 42 43 42 48 47 46 45 45 44 42 42 42 41 39 39 41 43 43 45 43 42 40 39 38 35 31 31
38 38 39 40 39 38 39 40 43 43 43 44 43 45 44 45 41 42 46 46 44 43 43 44 43 42 39 40 39 35 34 34 40 41 42 43 42 41 39 36 32 30 29
37 38 38 39 39 38 38 38 39 40 39 36 38 40 39 44 40 41 45 44 42 38 39 39 36 42 39 40 38 36 34 32 34 35 37 40 40 39 39 39 35 33 30
35 36 37 38 37 39 39 38 38 37 37 37 37 37 37 38 41 41 43 44 38 36 36 35 35 39 39 40 40 37 35 33 35 33 33 33 34 34 33 35 35 35 26
32 33 33 33 36 36 36 36 35 36 35 34 33 33 33 36 37 41 42 42 41 38 37 35 36 39 39 40 37 38 37 34 33 33 33 32 31 30 28 29 28 26 26
32 32 32 32 33 33 35 34 34 34 34 35 33 33 33 33 34 40 41 40 40 37 36 37 38 39 39 38 38 37 34 34 33 33 32 28 28 26 25 24 24 24 22
32 32 32 32 33 33 33 33 34 34 34 33 34 34 33 33 33 33 34 36 35 35 36 36 37 37 37 36 35 34 33 33 33 33 30 26 25 25 25 26 26 26 21
32 32 32 32 33 33 32 34 34 35 35 34 35 35 34 34 35 36 35 34 35 35 34 34 33 33 33 33 32 31 30 29 27 27 27 26 26 24 22 23 25 18 19
32 32 32 33 33 32 32 33 36 37 38 38 39 37 34 37 38 38 38 37 37 37 33 33 34 34 34 33 32 31 30 29 25 27 27 27 25 23 21 17 17 11 18
31 32 32 33 33 33 33 33 33 35 38 38 38 38 38 37 38 38 38 38 37 37 34 34 34 34 34 34 34 33 31 30 27 26 25 26 24 20 20 18 13 14 3
25 31 32 33 33 33 33 33 34 33 33 33 36 37 38 38 38 38 38 37 34 35 35 35 34 34 34 34 34 33 32 28 28 28 27 27 24 21 17 16 15 13 14
19 30 32 33 34 33 33 33 33 33 33 34 33 35 34 37 38 38 38 34 33 33 34 34 35 34 34 34 34 33 31 29 29 28 27 27 23 21 20 17 15 14 13
15 29 31 31 33 33 33 33 33 33 33 33 34 34 33 33 33 34 34 34 33 34 34 34 34 34 34 34 34 33 32 31 29 29 27 24 23 23 20 17 16 14 16
16 21 30 31 31 32 33 33 33 33 33 33 34 34 35 34 34 33 34 34 34 34 34 34 34 34 34 34 33 33 32 30 30 31 28 24 24 23 22 20 18 18 14
15 20 26 29 31 32 32 33 33 33 33 33 34 34 36 34 34 34 34 34 34 34 35 35 35 34 34 34 34 33 33 31 31 31 28 24 24 24 22 21 20 18 16
21 26 27 28 29 31 32 33 33 33 34 34 34 33 33 34 34 34 34 34 34 34 34 34 35 34 34 34 34 34 33 33 33 33 28 25 25 24 24 22 21 19 17
14 18 24 27 29 29 30 31 32 33 34 34 34 34 34 34 34 34 34 34 34 34 34 34 35 35 34 34 34 34 34 34 33 31 29 27 26 25 25 24 22 20 19
7 10 15 19 24 28 29 30 31 32 33 33 34 34 34 34 34 34 34 35 34 34 34 34 35 35 35 35 34 34 34 33 32 31 30 28 26 25 25 24 22 20 19
8 8 9 10 13 17 23 27 29 31 31 33 34 34 35 34 35 35 34 34 34 35 35 34 34 35 35 35 35 34 33 32 31 30 30 28 25 24 24 23 21 20 18
MSLP
1017.62 1017.80 1017.89 1018.06 1018.28 1018.26 1018.20 1018.24 1018.29 1018.24 1018.25 1018.29 1018.00 1018.06 1018.06 1017.69 1017.38 1017.24 1017.53 1017.58 1017.53 1017.74 1018.03 1018.31 1018.68 1018.93 1019.54 1020.03 1020.27 1020.78 1021.38 1022.17 1023.68 1026.09 1026.41 1027.06 1027.29 1027.53 1028.07 1028.46 1028.90 1029.06 1029.33
1017.38 1017.70 1017.74 1017.89 1018.11 1018.34 1018.30 1018.14 1018.15 1018.13 1018.22 1018.33 1018.06 1017.79 1018.01 1017.76 1017.61 1017.54 1017.55 1017.92 1017.97 1018.20 1018.28 1018.42 1018.90 1019.31 1019.89 1020.26 1020.75 1021.47 1022.07 1022.83 1023.19 1025.56 1026.83 1027.53 1028.10 1028.48 1028.81 1029.21 1029.61 1029.84 1030.09
1017.01 1017.33 1017.53 1017.64 1017.95 1018.34 1018.21 1018.15 1018.11 1018.03 1018.09 1018.14 1018.25 1017.84 1017.70 1017.83 1017.67 1017.78 1017.75 1017.84 1018.25 1018.35 1018.65 1018.70 1019.02 1019.43 1020.13 1020.77 1021.21 1021.84 1022.52 1023.40 1024.14 1024.58 1026.79 1027.85 1028.65 1029.18 1029.63 1030.24 1030.59 1030.97 1031.26
1016.93 1017.20 1017.31 1017.42 1017.54 1017.85 1018.15 1018.13 1018.21 1018.05 1018.10 1017.90 1018.00 1018.01 1017.67 1017.80 1017.77 1017.72 1017.99 1018.08 1018.29 1018.65 1018.81 1019.16 1019.35 1019.68 1020.36 1020.84 1021.51 1022.17 1022.93 1023.72 1024.61 1025.49 1026.55 1027.82 1028.67 1029.72 1030.09 1030.57 1031.43 1031.99 1032.39
1016.77 1017.01 1017.08 1017.06 1017.39 1017.48 1017.86 1017.93 1018.09 1018.06 1018.08 1017.85 1017.99 1017.92 1017.82 1017.67 1017.81 1017.95 1017.96 1018.24 1018.39 1018.76 1019.04 1019.40 1019.71 1019.90 1020.53 1020.90 1021.38 1022.36 1023.00 1023.79 1024.70 1025.56 1026.52 1027.63 1028.66 1029.53 1029.98 1030.79 1031.48 1032.42 1033.28
1016.21 1016.46 1016.75 1017.04 1017.20 1017.42 1017.49 1017.51 1017.90 1017.96 1017.98 1017.93 1017.84 1017.90 1017.77 1017.74 1017.73 1017.93 1017.93 1018.32 1018.49 1018.83 1019.17 1019.64 1020.11 1020.40 1020.90 1021.23 1021.70 1022.18 1022.34 1023.06 1024.14 1025.11 1026.13 1027.00 1028.04 1028.85 1029.80 1030.54 1031.29 1032.31 1033.16
1016.22 1016.52 1016.70 1016.90 1017.16 1017.30 1017.61 1017.65 1017.67 1017.66 1017.77 1017.86 1017.75 1017.70 1017.72 1017.69 1017.72 1017.83 1018.09 1018.29 1018.69 1018.98 1019.34 1019.80 1020.54 1020.98 1021.41 1021.63 1022.08 1022.50 1022.86 1022.99 1022.93 1023.42 1024.59 1025.71 1026.98 1027.82 1028.87 1030.12 1030.80 1031.39 1032.24
1015.84 1016.22 1016.62 1016.94 1017.30 1017.25 1017.44 1017.72 1017.54 1017.68 1017.79 1017.70 1017.72 1017.58 1017.76 1017.52 1017.73 1017.80 1018.08 1018.35 1018.83 1019.23 1019.60 1019.86 1020.38 1021.05 1021.46 1021.77 1022.40 1023.02 1023.37 1023.49 1023.54 1023.72 1024.09 1024.86 1025.79 1027.13 1028.11 1028.89 1030.25 1031.49 1032.75
1016.09 1016.24 1016.31 1016.54 1016.86 1017.27 1017.32 1017.39 1017.49 1017.55 1017.65 1017.77 1017.62 1017.67 1017.89 1017.67 1017.62 1017.88 1018.11 1018.61 1019.00 1019.55 1019.82 1020.19 1020.62 1021.14 1021.65 1021.81 1022.42 1023.26 1023.79 1023.94 1023.77 1023.82 1024.19 1024.91 1025.86 1026.82 1027.70 1029.00 1030.50 1031.28 1032.40
1016.40 1016.41 1016.39 1016.53 1016.69 1017.14 1017.25 1017.41 1017.33 1017.59 1017.56 1017.92 1017.88 1017.78 1017.82 1017.92 1017.62 1017.92 1018.15 1018.78 1019.35 1019.78 1020.24 1020.49 1020.62 1020.89 1021.43 1021.74 1022.28 1023.02 1023.72 1024.23 1024.24 1024.62 1025.05 1025.63 1026.30 1027.11 1027.66 1027.90 1028.89 1030.02 1031.13
1016.67 1016.63 1016.50 1016.58 1016.74 1016.98 1017.05 1017.39 1017.36 1017.75 1017.54 1017.99 1018.28 1018.00 1017.95 1017.96 1018.04 1017.90 1018.15 1018.62 1019.44 1020.06 1020.30 1020.61 1020.84 1021.00 1021.37 1021.79 1021.98 1022.59 1023.10 1023.98 1024.63 1024.93 1025.68 1026.35 1026.98 1027.62 1028.19 1028.46 1028.81 1029.19 1030.18
1016.97 1016.88 1016.93 1016.82 1016.82 1017.02 1017.18 1017.46 1017.35 1017.86 1017.72 1017.41 1018.62 1018.39 1018.20 1018.12 1018.07 1018.16 1018.24 1018.33 1018.93 1019.78 1020.12 1020.34 1020.57 1020.91 1021.29 1021.70 1022.30 1022.63 1023.20 1024.09 1024.84 1025.38 1025.98 1026.82 1027.34 1028.00 1028.59 1028.95 1029.49 1030.01 1030.37
1017.22 1017.43 1017.43 1017.25 1017.18 1017.11 1017.40 1017.42 1017.64 1017.76 1017.82 1017.56 1018.02 1018.63 1018.44 1018.26 1018.24 1018.31 1018.46 1018.52 1018.73 1019.23 1019.67 1019.97 1020.37 1020.92 1021.32 1021.88 1022.26 1022.79 1023.44 1024.09 1024.79 1025.48 1026.06 1026.93 1027.54 1028.13 1028.96 1029.66 1030.33 1030.66 1031.17
1017.77 1017.80 1017.64 1017.56 1017.57 1017.35 1017.28 1017.52 1017.66 1017.61 1017.73 1017.83 1017.75 1018.03 1018.38 1018.45 1018.40 1018.31 1018.42 1018.65 1018.82 1019.08 1019.62 1020.25 1020.55 1021.04 1021.44 1021.78 1022.56 1023.22 1023.62 1023.99 1024.47 1025.18 1026.02 1027.01 1028.02 1028.63 1029.15 1029.44 1030.39 1030.73 1031.45
1018.11 1017.92 1017.77 1017.69 1017.76 1017.69 1017.34 1017.45 1017.49 1017.38 1017.55 1017.48 1017.42 1017.59 1017.72 1017.98 1017.97 1017.95 1018.20 1018.42 1018.63 1018.83 1019.49 1020.21 1020.89 1021.23 1021.63 1022.12 1022.62 1023.04 1023.60 1024.27 1024.82 1025.41 1026.21 1026.98 1027.95 1028.68 1029.39 1029.85 1030.28 1031.12 1031.82
1018.38 1018.15 1017.90 1017.73 1017.72 1017.63 1017.45 1017.40 1017.25 1017.09 1016.98 1017.12 1017.26 1017.22 1017.12 1017.30 1017.49 1017.71 1017.88 1018.21 1018.57 1019.01 1019.52 1019.94 1020.30 1020.64 1020.98 1021.32 1021.94 1022.69 1023.23 1023.99 1024.72 1025.30 1026.02 1026.66 1027.41 1028.44 1029.40 1030.20 1030.66 1031.29 1032.07
1018.70 1018.39 1018.12 1017.83 1017.59 1017.38 1017.35 1017.34 1016.97 1016.65 1016.62 1016.63 1016.66 1017.01 1017.00 1017.05 1017.14 1017.50 1017.69 1017.93 1018.32 1018.75 1018.82 1019.31 1019.64 1019.87 1020.10 1020.58 1020.88 1021.40 1022.19 1023.23 1024.19 1025.00 1025.55 1026.20 1027.03 1028.18 1029.24 1030.20 1030.94 1031.47 1032.48
1019.09 1018.62 1018.14 1017.70 1017.34 1017.14 1017.13 1017.12 1017.08 1016.94 1016.65 1016.38 1016.39 1016.39 1016.51 1016.74 1016.69 1017.11 1017.42 1017.94 1018.29 1018.35 1018.37 1018.34 1018.59 1018.97 1019.38 1019.66 1020.13 1020.62 1021.58 1022.71 1023.51 1024.31 1025.03 1025.73 1026.58 1027.16 1028.33 1029.41 1030.21 1030.89 1032.01
1019.30 1018.59 1018.02 1017.67 1017.37 1017.08 1016.92 1016.86 1016.77 1016.65 1016.46 1016.32 1016.37 1016.11 1016.01 1016.26 1016.48 1016.71 1016.97 1017.22 1017.42 1017.53 1017.74 1017.83 1017.81 1017.83 1018.10 1018.89 1019.41 1019.94 1020.71 1021.57 1022.49 1023.53 1024.33 1025.02 1025.95 1026.82 1027.71 1028.68 1029.58 1030.36 1031.35
1019.42 1018.56 1018.10 1017.70 1017.32 1017.02 1016.79 1016.59 1016.36 1016.19 1016.22 1016.19 1015.96 1015.86 1015.95 1016.14 1016.26 1016.28 1016.22 1016.64 1016.71 1016.81 1016.79 1017.17 1017.38 1017.47 1017.67 1018.12 1018.53 1019.30 1020.07 1020.96 1021.74 1022.68 1023.47 1024.46 1025.19 1025.90 1026.97 1028.04 1029.05 1029.95 1030.79
1019.54 1018.76 1017.96 1017.68 1017.28 1016.90 1016.60 1016.35 1016.15 1016.01 1015.81 1015.68 1015.46 1015.34 1015.36 1015.49 1015.44 1015.36 1015.70 1015.65 1015.82 1015.85 1015.87 1016.17 1016.40 1016.68 1017.12 1017.56 1018.06 1018.63 1019.20 1019.84 1020.58 1021.44 1022.33 1023.39 1024.23 1025.01 1025.84 1026.87 1028.00 1029.05 1030.11
1019.29 1018.63 1018.20 1017.64 1017.19 1016.77 1016.36 1016.06 1015.81 1015.55 1015.31 1015.10 1014.80 1014.72 1014.79 1014.77 1014.65 1014.67 1014.64 1014.67 1014.78 1014.87 1014.90 1015.20 1015.45 1015.78 1016.07 1016.34 1017.07 1017.79 1018.24 1018.70 1019.47 1020.19 1021.20 1022.32 1023.36 1024.27 1025.09 1026.05 1027.09 1028.06 1029.15
1019.11 1018.51 1018.06 1017.58 1017.12 1016.61 1016.18 1015.83 1015.49 1015.18 1014.84 1014.59 1014.42 1014.23 1014.15 1014.06 1014.07 1013.98 1013.88 1013.84 1013.90 1014.02 1014.13 1014.38 1014.50 1014.89 1015.11 1015.43 1015.88 1016.34 1017.21 1017.71 1018.12 1018.84 1020.13 1021.24 1022.14 1022.91 1023.86 1024.77 1025.69 1026.82 1027.81
1019.66 1019.02 1018.28 1017.45 1016.89 1016.47 1016.06 1015.65 1015.26 1014.89 1014.55 1014.20 1013.92 1013.71 1013.56 1013.46 1013.32 1013.17 1013.17 1013.24 1013.20 1013.16 1013.18 1013.43 1013.57 1013.68 1014.00 1014.38 1014.81 1015.23 1015.70 1016.40 1017.25 1018.28 1019.21 1020.27 1021.19 1022.32 1022.91 1023.62 1024.50 1025.52 1026.57
1019.74 1019.43 1018.72 1017.96 1017.16 1016.34 1015.80 1015.36 1014.98 1014.59 1014.20 1013.84 1013.48 1013.17 1012.91 1012.75 1012.63 1012.46 1012.46 1012.49 1012.38 1012.35 1012.32 1012.35 1012.50 1012.60 1012.81 1013.02 1013.53 1013.90 1014.48 1015.22 1015.89 1016.99 1017.97 1019.11 1019.89 1020.84 1021.81 1022.59 1023.34 1024.46 1025.74
1019.70 1019.30 1018.72 1018.12 1017.54 1016.96 1016.23 1015.40 1014.67 1014.15 1013.70 1013.27 1012.84 1012.50 1012.29 1012.18 1012.03 1011.92 1011.80 1011.71 1011.57 1011.49 1011.46 1011.49 1011.46 1011.57 1011.89 1012.16 1012.33 1012.73 1013.31 1014.15 1014.87 1015.69 1016.68 1017.71 1018.75 1019.80 1020.58 1021.35 1022.38 1023.31 1024.31
Wind_Speed
6 5 5 4 4 4 4 4 3 2 2 3 2 2 4 2 2 2 4 4 5 4 5 7 7 7 7 5 5 7 6 8 13 4 4 6 8 11 10 10 9 10 9
6 5 6 5 4 4 4 4 4 3 1 3 3 2 3 3 4 4 4 4 6 7 5 7 7 7 7 6 5 8 8 7 15 14 4 4 6 9 10 11 8 9 10
7 7 6 6 5 5 5 4 4 3 3 3 4 2 2 4 5 4 6 5 4 6 7 9 8 9 8 6 7 8 8 8 8 12 8 3 4 6 10 10 10 11 9
6 6 6 6 6 6 5 4 4 4 3 2 3 4 1 3 3 5 6 5 5 5 6 6 8 9 8 9 8 9 9 9 9 8 9 6 4 4 6 8 8 6 7
7 6 6 6 5 5 5 4 4 3 4 3 3 4 2 1 3 5 7 7 7 6 5 6 5 8 10 8 8 9 11 9 9 9 8 5 6 7 8 4 8 7 6
8 8 6 5 5 5 5 6 5 4 4 3 4 5 3 2 5 8 8 7 6 7 7 5 4 7 10 12 11 7 12 16 11 8 6 10 9 6 7 8 10 7 4
6 5 5 5 5 5 5 4 5 5 4 4 5 4 4 2 5 8 9 6 7 6 7 8 5 4 6 9 11 10 8 4 12 12 14 12 12 11 12 10 8 2 3
6 6 6 5 5 5 5 5 4 3 4 4 5 4 4 2 2 8 9 6 5 6 5 6 8 7 7 10 8 7 5 4 5 4 10 11 10 13 12 7 8 7 9
4 5 5 6 6 5 5 5 4 3 3 4 3 4 4 4 5 8 8 5 6 5 6 7 7 6 9 13 10 8 5 4 4 8 11 14 19 22 15 12 7 10 4
2 5 5 5 5 6 6 5 3 2 3 0 3 2 3 5 6 7 8 4 5 4 3 4 8 9 14 14 11 10 8 4 7 7 9 13 16 15 19 8 12 9 6
4 3 2 4 4 4 4 3 2 3 4 2 4 2 3 3 4 8 10 6 4 3 4 4 3 13 15 11 10 8 6 8 9 9 8 7 8 8 4 5 4 6 4
4 3 2 2 1 2 4 3 3 3 4 7 3 2 2 3 2 5 8 7 12 7 7 4 4 15 14 13 8 15 20 13 7 7 8 6 7 6 4 5 5 5 4
5 5 4 2 1 2 2 2 1 2 2 2 4 2 2 2 2 4 7 8 11 5 4 7 11 13 14 10 16 19 15 8 8 7 8 4 3 5 7 6 7 8 9
5 5 4 3 1 1 2 1 1 3 2 1 2 4 3 2 2 1 1 3 6 5 10 6 8 9 7 8 10 11 5 6 8 7 6 5 6 5 5 3 4 5 4
5 4 3 2 3 3 1 2 3 3 2 2 3 2 3 4 4 5 5 4 4 5 8 7 5 5 7 7 5 5 5 5 6 5 7 7 6 5 3 2 5 3 3
4 4 3 3 2 2 1 3 7 9 7 8 7 4 2 5 7 12 12 11 11 16 3 4 7 7 8 9 8 7 6 8 6 7 7 7 7 6 5 2 2 2 5
5 6 4 4 4 2 3 3 3 2 8 9 8 10 10 6 8 11 13 14 16 16 4 7 7 8 8 9 9 9 9 7 9 7 8 9 8 7 9 7 4 5 3
4 6 5 4 3 3 2 4 5 5 3 2 7 8 9 11 9 12 12 11 7 10 6 8 9 9 8 9 9 9 8 8 9 8 8 8 8 10 10 9 7 6 8
4 5 5 5 5 4 3 3 3 3 5 5 1 3 5 9 9 11 14 6 7 8 8 7 7 9 9 8 8 8 10 10 10 9 8 9 9 9 9 8 7 9 9
3 7 6 6 6 6 4 4 4 4 5 6 6 5 2 3 5 6 8 8 6 7 7 7 6 7 8 9 9 9 9 10 10 10 10 9 9 9 9 10 9 10 8
3 5 6 6 6 6 6 7 5 5 5 5 8 5 10 6 6 6 7 8 9 8 8 8 7 7 7 8 8 9 10 10 10 11 10 10 10 11 10 10 9 9 9
3 4 5 6 6 7 7 6 6 6 6 7 6 5 14 7 6 7 8 8 8 8 7 8 8 9 9 10 10 9 11 12 12 12 11 10 10 9 10 11 11 10 10
5 6 6 6 7 8 8 8 8 8 9 9 8 5 5 7 7 7 8 8 7 8 7 8 8 8 8 9 10 11 12 12 11 11 11 12 12 12 12 12 13 12 12
5 7 7 7 6 7 7 8 8 11 11 10 9 7 7 7 8 9 8 7 7 8 8 8 9 12 11 10 10 11 11 10 9 11 14 12 12 12 11 12 12 14 12
3 5 6 7 8 7 7 8 8 9 10 10 10 8 7 7 8 8 8 8 8 8 9 9 9 12 15 17 16 17 16 17 16 16 13 14 15 18 14 12 14 13 13
5 5 4 4 6 7 8 9 8 8 9 10 10 10 9 8 8 8 8 8 8 9 10 8 11 15 16 15 18 19 19 20 19 22 15 13 14 13 13 15 19 13 17
Wind_Direction
194 199 201 203 203 187 182 173 196 202 244 276 314 352 311 297 143 108 96 113 98 91 106 112 112 118 123 107 88 94 100 121 113 84 78 84 80 93 84 77 77 81 78
195 195 203 195 192 203 207 191 203 201 205 268 285 326 319 278 174 150 125 132 139 132 133 120 122 114 97 89 90 97 110 123 129 124 106 99 83 87 93 89 81 77 79
185 189 198 201 194 222 219 198 200 205 202 259 274 272 328 300 164 154 147 150 145 136 144 144 132 122 112 115 108 108 107 118 126 132 126 112 102 101 97 86 79 77 68
186 190 195 201 199 202 222 198 206 215 217 224 257 267 260 301 213 148 137 140 136 139 136 139 147 137 136 132 116 119 129 126 129 129 124 122 113 114 105 114 97 79 82
189 193 207 196 210 195 211 185 188 215 226 197 269 268 235 262 233 168 148 149 145 139 124 126 140 128 120 122 138 143 137 135 140 140 137 130 136 151 149 129 112 105 68
185 194 192 195 198 205 203 177 179 215 229 219 237 246 255 254 251 189 150 147 149 146 139 112 109 121 130 128 122 137 155 153 156 150 154 159 160 145 138 144 137 142 119
189 195 188 191 198 198 212 193 192 195 212 228 231 212 245 250 241 180 161 138 150 150 147 133 119 103 112 117 111 119 121 125 165 165 166 171 162 163 150 151 161 119 119
178 181 181 182 206 197 186 222 211 201 217 210 227 208 249 175 197 165 153 131 122 122 132 144 143 145 145 137 125 111 104 127 169 171 175 166 157 154 156 147 127 99 109
180 201 189 181 184 198 192 208 218 201 198 214 205 209 232 214 147 161 131 135 132 145 139 140 143 144 152 142 131 125 109 68 69 129 126 139 147 151 143 127 134 140 128
217 221 201 192 184 203 200 210 179 194 179 178 211 243 239 234 166 175 136 124 141 133 114 140 157 158 159 158 145 149 136 153 119 100 111 125 141 145 153 161 155 154 124
316 284 225 184 200 219 197 186 166 206 156 120 252 259 260 228 206 164 161 149 149 147 160 168 178 162 168 165 152 158 149 138 120 114 110 111 118 129 112 130 148 151 132
8 22 28 350 192 193 194 234 151 210 220 121 296 298 304 279 208 188 175 159 157 164 190 181 174 171 164 154 143 138 135 127 127 128 128 133 136 129 112 96 88 83 48
37 34 16 41 21 116 185 178 151 198 200 218 153 275 278 276 281 214 198 177 167 158 167 174 163 163 149 140 145 145 140 141 142 148 149 137 123 116 110 90 82 86 72
36 18 13 20 325 172 120 166 216 200 200 200 187 192 222 259 257 235 185 161 133 111 127 134 145 135 129 128 139 147 154 157 158 155 144 116 117 131 131 130 128 141 96
26 21 11 359 319 292 308 206 205 226 235 211 216 195 177 212 232 200 182 179 172 153 126 125 134 143 145 153 154 148 132 133 141 135 146 143 140 139 113 143 125 98 110
12 3 354 339 312 275 252 267 246 240 235 252 267 220 239 232 188 196 191 181 166 153 105 164 178 178 181 174 173 168 169 161 152 149 151 156 153 155 144 111 104 116 141
351 335 324 319 311 304 294 266 279 289 245 243 236 250 245 237 216 213 200 186 176 165 183 184 192 194 187 187 179 178 177 173 154 160 163 167 153 148 152 163 140 132 102
306 306 298 300 290 296 265 276 277 275 271 268 247 231 233 238 231 216 198 164 173 199 208 194 197 190 192 189 184 178 162 154 169 168 166 166 163 164 158 167 169 152 154
323 307 299 293 287 261 254 244 241 254 272 274 247 255 222 233 231 213 183 191 197 207 215 218 209 190 188 186 184 177 167 170 170 170 169 169 164 166 167 164 157 155 146
309 317 295 288 285 282 264 245 245 243 253 260 256 237 173 162 191 198 194 204 208 211 210 217 211 199 188 187 179 174 169 170 170 176 170 170 170 169 166 161 163 162 175
298 296 293 292 281 277 276 273 257 241 237 240 256 238 201 203 216 195 210 209 214 215 209 205 200 191 190 181 178 179 181 177 179 178 172 172 172 173 165 164 161 165 153
293 285 295 286 283 282 279 276 271 263 258 257 253 239 227 221 224 219 214 216 218 221 208 204 201 198 191 185 183 190 191 187 183 181 173 169 172 171 165 163 164 162 160
310 311 298 290 285 284 281 278 276 273 272 268 269 252 221 229 231 229 228 224 215 213 209 207 204 202 193 189 186 183 188 199 193 175 171 172 176 173 173 172 170 167 170
311 313 312 293 282 278 280 280 278 277 276 274 270 263 250 238 231 233 234 230 219 218 210 211 211 206 197 193 190 191 191 184 176 177 169 173 175 175 175 172 173 174 171
296 304 311 310 314 295 274 270 272 275 276 276 275 268 261 255 249 237 233 232 232 224 219 212 213 215 208 198 196 193 191 182 173 172 173 176 177 176 179 177 170 166 167
296 289 283 284 288 293 298 298 282 270 269 273 274 272 269 259 251 248 237 229 230 230 226 220 218 214 211 211 204 193 184 180 177 176 174 174 172 178 178 176 172 170 166